Probability
0 0 0 0 0 0 0 0 0 0 0 0 0 0 0 0 0 0 0 0 0 0 0 0 0 0 0 0 0 0 0 0 0 0 0 0 0 0 0 0 0 0 0
0 0 0 0 0 0 0 0 0 0 0 0 0 0 0 0 0 0 0 0 0 0 0 0 0 0 0 0 0 0 0 0 0 0 0 0 0 0 0 0 0 0 0
0 0 0 0 0 0 0 0 0 0 0 0 0 0 0 0 0 0 0 0 0 0 0 0 0 0 0 0 0 0 0 0 0 0 0 0 0 0 0 0 0 0 0
0 0 0 0 0 0 0 0 0 0 0 0 0 0 0 0 0 0 0 0 0 0 0 0 0 0 0 0 0 0 0 0 0 0 0 0 0 0 0 0 0 0 0
0 0 0 0 0 0 0 0 0 0 0 0 0 0 0 0 0 0 0 0 0 0 0 0 0 0 0 0 0 0 0 0 0 0 0 0 0 0 0 0 0 0 0
0 0 0 0 0 0 0 0 0 0 0 0 0 0 0 0 0 0 0 0 0 0 0 0 0 0 0 0 0 0 0 0 0 0 0 0 0 0 0 0 0 0 0
0 0 0 0 0 0 0 0 0 0 0 0 0 0 0 0 0 0 0 0 0 0 0 0 0 0 0 0 0 0 0 0 0 0 0 0 0 0 0 0 0 0 0
0 0 0 0 0 0 0 0 0 0 0 0 0 0 0 0 0 0 0 0 0 0 0 0 0 0 0 0 0 0 0 0 0 0 0 0 0 0 0 0 0 0 0
0 0 0 0 0 0 0 0 0 0 0 0 0 0 0 0 0 0 0 0 0 0 0 0 0 0 0 0 0 0 0 0 0 0 0 0 0 0 0 0 0 0 0
0 0 0 0 0 0 0 0 0 0 0 0 0 0 0 0 0 0 0 0 0 0 0 0 0 0 0 0 0 0 0 0 0 0 0 0 0 0 0 0 0 0 0
0 0 0 0 0 0 0 0 0 0 0 0 0 0 0 0 0 0 0 0 0 0 0 0 0 0 0 0 0 0 0 0 0 0 0 0 0 0 0 0 0 0 0
0 0 0 0 0 0 0 0 0 0 0 0 0 0 0 0 0 0 0 0 0 0 0 0 0 0 0 0 0 0 0 0 0 0 0 0 0 0 0 0 0 0 0
0 0 0 0 0 0 0 0 0 0 0 0 0 0 0 0 0 0 0 0 0 0 0 0 0 0 0 0 0 0 0 0 0 0 0 0 0 0 0 0 0 0 0
0 0 0 0 0 0 0 0 0 0 0 0 0 0 0 0 0 0 0 0 0 0 0 0 0 0 0 0 0 0 0 0 0 0 0 0 0 0 0 0 0 0 0
0 0 0 0 0 0 0 0 0 0 0 0 0 0 0 0 0 0 0 0 0 0 0 0 0 0 0 0 0 0 0 0 0 0 0 0 0 0 0 0 0 0 0
0 0 0 0 0 0 0 0 0 0 0 0 0 0 0 0 0 0 0 0 0 0 0 0 0 0 0 0 0 0 0 0 0 0 0 0 0 0 0 0 0 0 0
0 0 0 0 0 0 0 0 0 0 0 0 0 0 0 0 0 0 0 0 0 0 0 0 0 0 0 0 0 0 0 0 0 0 0 0 0 0 0 0 0 0 0
0 0 0 0 0 0 0 0 0 0 0 0 0 0 0 0 0 0 0 0 0 0 0 0 0 0 0 0 0 0 0 0 0 0 0 0 0 0 0 0 0 0 0
0 0 0 0 0 0 0 0 0 0 0 0 0 0 0 0 0 0 0 0 0 0 0 0 0 0 0 0 0 0 0 0 0 0 0 0 0 0 0 0 0 0 0
0 0 0 0 0 0 0 0 0 0 0 0 0 0 0 0 0 0 0 0 0 0 0 0 0 0 0 0 0 0 0 0 0 0 0 0 0 0 0 0 0 0 0
0 0 0 0 0 0 0 0 0 0 0 0 0 0 0 0 0 0 0 0 0 0 0 0 0 0 0 0 0 0 0 0 0 0 0 0 0 0 0 0 0 0 0
0 0 0 0 0 0 0 0 0 0 0 0 0 0 0 0 0 0 0 0 0 0 0 0 0 0 0 0 0 0 0 0 0 0 0 0 0 0 0 0 0 0 0
0 0 0 0 0 0 0 0 0 0 0 0 0 0 0 0 0 0 0 0 0 0 0 0 0 0 0 0 0 0 0 0 0 0 0 0 0 0 0 0 0 0 0
0 0 0 0 0 0 0 0 0 0 0 0 0 0 0 0 0 0 0 0 0 0 0 0 0 0 0 0 0 0 0 0 0 0 0 0 0 0 0 0 0 0 0
0 0 0 0 0 0 0 0 0 0 0 0 0 0 0 0 0 0 0 0 0 0 0 0 0 0 0 0 0 0 0 0 0 0 0 0 0 0 0 0 0 0 0
0 0 0 0 0 0 0 0 0 0 0 0 0 0 0 0 0 0 0 0 0 0 0 0 0 0 0 0 0 0 0 0 0 0 0 0 0 0 0 0 0 0 0
Wind_Speed
10 10 12 12 11 10 11 12 12 12 9 7 7 7 7 5 5 5 7 8 10 12 11 9 11 11 10 12 11 8 10 7 8 6 3 2 2 3 3 3 3 3 3
9 10 11 12 13 13 12 11 12 12 12 10 8 5 5 5 5 5 6 7 9 12 11 13 12 12 10 11 11 11 7 5 8 6 5 4 2 3 4 3 4 4 3
10 8 9 11 12 13 13 12 12 12 12 10 6 4 4 3 5 7 8 8 9 10 11 14 13 14 13 13 14 16 13 10 9 5 7 7 7 4 3 5 4 5 4
10 8 8 9 11 12 11 11 10 10 10 10 9 10 10 10 10 6 6 7 8 10 11 13 14 14 13 14 15 16 10 12 11 6 4 3 7 7 4 3 4 6 6
7 6 6 7 8 9 9 9 10 10 10 10 11 10 9 7 4 5 7 8 8 9 10 12 13 14 13 14 16 15 12 9 10 8 5 3 3 4 6 5 4 4 5
2 3 3 4 3 5 7 7 8 9 9 9 10 11 10 8 7 8 8 7 6 7 9 10 12 13 13 14 14 16 15 12 11 8 6 7 6 7 6 5 5 4 4
2 1 2 3 4 5 6 7 7 8 8 9 9 10 10 9 10 9 8 8 7 7 10 10 12 11 12 13 13 14 14 13 12 12 9 7 6 5 5 6 5 4 3
3 3 4 5 5 7 7 7 8 7 8 9 9 8 9 7 7 8 7 8 8 8 9 11 11 12 12 13 14 12 14 11 12 13 10 6 6 5 6 7 7 5 3
3 4 4 4 5 6 7 7 7 7 7 8 8 8 8 9 8 8 8 7 7 7 10 12 12 12 13 14 14 11 14 12 13 12 11 7 5 5 5 5 7 9 8
1 1 2 2 3 4 5 6 7 7 7 7 7 7 8 9 8 7 8 8 8 8 10 12 12 12 12 13 12 9 11 13 12 9 10 9 6 5 5 5 5 5 7
1 0 1 2 3 3 3 5 6 6 7 8 8 8 8 8 9 9 9 8 7 9 10 10 11 12 12 12 12 12 12 14 12 10 11 11 9 8 6 5 5 4 5
1 0 1 2 3 4 5 5 6 7 8 8 8 8 8 8 9 10 9 8 8 9 9 9 10 11 11 11 13 14 13 15 15 14 13 13 10 10 8 7 6 5 5
2 2 2 3 5 5 6 7 7 8 8 7 8 8 9 10 11 11 9 8 8 8 8 9 11 11 11 11 13 13 13 14 15 15 15 15 14 13 9 9 8 6 4
3 3 4 5 5 6 6 7 8 8 8 8 8 10 11 11 10 9 8 8 8 9 9 9 9 9 9 10 11 11 11 12 12 12 13 14 15 15 14 11 10 8 7
5 6 6 7 6 6 6 7 7 7 7 8 9 11 10 8 8 8 8 7 8 8 8 8 8 8 8 9 10 11 11 11 11 10 11 12 14 15 14 11 12 11 8
7 7 8 8 8 7 7 6 6 6 6 8 9 9 7 7 7 7 7 7 7 7 7 8 8 8 8 12 17 13 10 10 11 11 9 9 11 16 19 19 18 16 12
10 10 9 9 8 7 6 6 5 4 5 7 7 6 6 6 6 6 6 7 7 6 7 7 7 8 10 15 16 17 10 9 10 10 10 9 9 12 11 15 17 14 14
10 10 8 8 6 4 3 3 2 2 3 5 5 5 5 5 5 5 6 6 5 6 6 6 6 6 8 14 14 14 9 7 8 10 11 12 12 12 14 12 11 9 8
7 7 6 6 6 5 4 3 3 2 3 4 4 4 4 5 4 5 5 4 4 4 4 4 6 6 6 12 13 12 6 6 7 8 9 12 13 19 21 14 12 10 7
7 7 6 6 5 5 5 4 4 3 3 4 3 3 3 4 4 4 3 3 3 3 4 3 4 5 5 9 12 13 5 6 6 6 8 11 15 20 22 13 11 10 8
7 5 6 5 4 5 5 4 3 3 3 2 1 0 1 2 2 2 2 3 3 4 3 3 2 3 4 7 11 12 5 6 7 6 6 8 18 21 22 16 10 11 9
6 5 5 5 4 4 3 3 2 2 2 2 3 3 3 3 3 4 4 4 5 4 3 3 1 0 1 3 6 10 10 10 7 6 6 8 18 19 20 15 13 15 10
5 4 4 5 4 4 3 2 2 2 2 4 4 4 5 4 4 4 4 4 4 3 3 2 2 1 0 1 4 6 9 13 7 5 10 12 16 17 14 16 15 10 6
5 3 4 4 3 3 4 3 3 1 3 4 4 4 5 5 4 4 3 3 3 3 2 2 2 1 1 0 0 1 3 6 7 5 7 12 13 11 8 6 7 5 5
4 3 3 3 2 2 3 4 4 1 3 4 4 4 5 5 4 4 4 4 3 3 3 2 2 2 1 1 3 2 2 3 4 4 3 3 3 4 3 3 3 3 4
3 2 2 1 1 1 2 4 4 1 3 4 4 4 4 4 4 4 5 10 8 9 8 6 4 2 2 1 1 3 4 6 8 4 3 3 3 4 4 4 3 3 3
Wind_Direction
220 203 193 186 183 185 187 187 186 187 186 189 192 196 205 203 202 201 200 195 186 183 180 173 170 171 174 174 168 154 148 144 139 114 103 85 123 138 147 142 141 139 129
230 213 193 180 183 187 191 192 193 189 191 196 192 187 184 200 203 198 205 203 193 188 185 178 177 177 175 172 170 157 150 164 172 147 138 153 218 231 185 162 161 162 153
237 221 196 184 182 188 193 198 199 195 193 188 175 175 181 185 196 203 205 206 200 193 188 184 179 180 180 180 178 175 165 175 195 191 163 161 187 184 195 190 175 170 169
238 228 206 192 187 191 188 192 196 197 193 185 187 187 194 202 205 199 199 198 201 200 193 186 183 184 186 185 184 186 182 173 184 206 224 179 149 151 166 203 196 183 181
224 215 198 186 184 180 181 187 191 197 194 192 193 197 207 211 196 189 192 197 201 203 199 191 188 189 191 189 188 190 191 186 187 184 173 170 152 140 143 174 194 198 197
74 94 106 114 143 158 169 177 186 196 195 195 196 201 207 204 206 202 197 196 197 203 202 196 194 193 194 193 192 193 197 198 196 196 183 173 170 180 162 156 167 187 200
75 103 149 172 180 174 174 177 186 196 194 196 202 204 205 206 213 210 200 193 193 202 205 201 201 197 196 196 193 195 200 202 201 203 203 200 197 165 156 137 145 157 171
221 223 217 204 196 188 179 180 191 200 196 199 206 206 204 211 221 216 202 200 202 204 198 205 207 201 197 198 196 198 202 204 207 208 204 203 204 184 172 154 145 144 156
222 219 215 207 194 184 184 186 192 200 201 201 204 209 209 213 221 220 208 202 198 193 193 200 208 206 201 201 198 202 203 204 208 208 203 198 195 196 191 162 155 152 165
145 189 198 193 178 172 177 182 192 200 203 202 206 211 214 217 221 222 220 211 199 189 188 195 203 206 205 203 202 201 202 205 208 204 200 197 186 189 189 175 168 152 150
78 121 171 153 146 148 169 188 198 203 204 205 206 210 215 217 218 223 223 214 202 192 190 192 198 204 206 203 205 206 201 206 207 201 198 198 183 183 183 173 166 156 138
23 345 176 177 186 204 206 207 208 211 210 205 208 214 215 217 221 226 222 211 207 198 193 190 197 204 206 204 205 207 205 205 205 203 198 195 186 184 180 176 173 161 144
248 258 244 228 221 216 211 214 217 218 212 204 209 216 218 219 224 225 220 211 205 200 193 190 199 204 205 205 209 210 209 209 208 204 199 193 184 185 179 174 169 153 135
252 255 260 253 243 229 218 215 220 215 208 203 210 221 225 223 224 221 215 210 203 200 195 194 200 203 204 208 210 211 211 211 210 205 200 192 189 185 176 171 164 149 138
271 265 264 264 263 255 243 229 225 216 205 205 216 228 231 226 222 218 214 208 204 201 190 189 197 199 203 210 209 210 211 209 208 203 199 193 187 181 176 170 164 155 148
286 281 277 275 272 269 261 246 238 226 207 212 223 231 230 224 222 218 209 205 203 195 185 189 192 200 210 217 216 211 210 207 203 198 191 181 174 176 178 176 170 164 157
285 284 282 277 273 270 267 262 255 237 215 225 231 232 230 229 224 214 206 205 200 190 190 191 191 202 217 222 222 216 205 203 199 191 178 172 168 163 162 167 167 168 170
289 288 289 288 288 295 306 311 318 287 246 244 246 243 235 235 226 212 210 205 191 188 189 190 192 200 218 226 226 216 203 197 191 184 175 167 163 165 159 157 161 165 173
312 315 320 318 321 333 349 348 324 301 270 259 254 243 229 227 219 215 210 196 185 183 183 180 187 199 216 224 225 209 189 187 181 173 167 165 166 174 170 166 167 171 186
328 329 330 328 330 349 3 345 315 305 285 277 265 246 216 208 209 206 194 176 169 171 162 168 181 194 209 222 222 206 179 176 165 160 163 172 173 180 180 175 173 181 185
316 323 324 321 336 356 352 322 313 304 304 308 328 13 153 173 173 155 140 134 129 129 134 145 162 193 206 226 224 208 178 172 166 170 174 186 189 190 191 186 185 192 180
311 321 316 313 340 352 337 309 314 333 1 49 65 63 68 80 98 108 105 110 117 118 118 118 113 128 207 222 230 218 196 176 170 178 179 190 197 198 199 197 195 196 188
300 312 306 305 329 345 338 307 331 358 66 81 81 77 75 73 85 101 105 102 106 114 120 127 133 121 78 257 238 226 205 187 173 177 185 191 200 204 205 207 203 197 193
297 298 292 289 309 349 351 336 330 27 102 102 98 93 91 84 77 80 89 98 103 112 120 124 125 122 126 191 210 203 197 190 183 178 189 197 203 202 194 197 204 198 196
292 282 266 269 295 356 355 341 330 53 112 109 106 101 97 99 89 79 77 86 75 95 111 112 118 125 131 224 203 169 163 159 159 150 151 166 171 183 181 180 183 183 185
285 275 260 257 317 5 357 340 330 340 125 115 107 103 102 97 96 95 82 74 79 77 76 79 85 79 75 60 159 179 175 170 163 152 152 163 173 180 181 180 179 179 186